リニア彗星

C/2002 VQ94 ( LINEAR )

English version
Home page
Updated on September 2, 2011

---------------------------------------------------------------------

・ プロフィール

発見日 2002年11月11日
発見光度 18.7等
発見者 Lincoln Laboratory Near-Earth Asteroid Research project

・ 写真集

・ 軌道要素

The following orbital elements are taken from MPC 75007:

Epoch 2006 Jan. 25.0 TT = JDT 2453760.5
T 2006 Feb. 6.6486 TT                                   MPC
q   6.796646             (2000.0)            P               Q
z  +0.004869       Peri.  100.0369      -0.3311993      -0.7730956
 +/-0.000000       Node    35.0166      -0.2142177      -0.4967315
e   0.966907       Incl.   70.5157      +0.9189221      -0.3944376
From 1273 observations 2001 Oct. 27-2011 May 7, mean residual 0".5.

・ 星図

・ 光度変化

        m1 = 6.0 + 5 logΔ + 7.5 log r(t - 330)

---------------------------------------------------------------------

軌道要素はMPCのEphemerides and Orbital Elementsに掲載されたものです。
星図は StellaNavigator Ver.2.0 for Windows (アストロアーツ 編著 / アスキー出版局刊) で作成したものです。
光度グラフはComet for Windowsで作成したものです。

---------------------------------------------------------------------

Copyright(C) Seiichi Yoshida (comet@aerith.net). All rights reserved.